When you browse on this site, cookies collect data to enhance your experience and personalize the content and advertising you see.
Visit our Privacy Policy to learn more. By continuing to use the site, you agree to this use of cookies and data.

Meteo orario Yenakievo

Oggi, 23 Settembre, Mercoledi

Tempo Temperatura Precipitazioni Vento Pressione Umidità
00:00 +15°C° 0 mm 1 m/s 747 mm Hg 33%
01:00 +14°C° 0 mm 1 m/s 747 mm Hg 33%
02:00 +13°C° 0 mm 0 m/s 747 mm Hg 34%
03:00 +12°C° 0 mm 0 m/s 747 mm Hg 34%
04:00 +12°C° 0 mm 0 m/s 747 mm Hg 34%
05:00 +12°C° 0 mm 0 m/s 747 mm Hg 35%
06:00 +12°C° 0 mm 0 m/s 747 mm Hg 35%
07:00 +15°C° 0 mm 1 m/s 747 mm Hg 32%
08:00 +18°C° 0 mm 1 m/s 747 mm Hg 28%
09:00 +20°C° 0 mm 2 m/s 747 mm Hg 25%
10:00 +21°C° 0 mm 2 m/s 747 mm Hg 23%
11:00 +24°C° 0 mm 2 m/s 747 mm Hg 20%
12:00 +26°C° 0 mm 2 m/s 747 mm Hg 18%
13:00 +26°C° 0 mm 2 m/s 746 mm Hg 17%
14:00 +27°C° 0 mm 2 m/s 746 mm Hg 15%
15:00 +28°C° 0 mm 2 m/s 746 mm Hg 13%
16:00 +26°C° 0 mm 2 m/s 745 mm Hg 15%
17:00 +25°C° 0 mm 2 m/s 745 mm Hg 17%
18:00 +24°C° 0 mm 1 m/s 744 mm Hg 18%
19:00 +21°C° 0 mm 2 m/s 744 mm Hg 20%
20:00 +20°C° 0 mm 2 m/s 745 mm Hg 22%
21:00 +18°C° 0 mm 2 m/s 745 mm Hg 24%
22:00 +18°C° 0 mm 2 m/s 745 mm Hg 26%
23:00 +17°C° 0 mm 2 m/s 744 mm Hg 27%

Domani, 24 Settembre, Giovedi

Tempo Temperatura Precipitazioni Vento Pressione Umidità
00:00 +17°C° 0 mm 2 m/s 744 mm Hg 29%
01:00 +16°C° 0 mm 2 m/s 744 mm Hg 30%
02:00 +16°C° 0 mm 2 m/s 745 mm Hg 32%
03:00 +15°C° 0 mm 2 m/s 745 mm Hg 33%
04:00 +15°C° 0 mm 2 m/s 745 mm Hg 34%
05:00 +15°C° 0 mm 2 m/s 744 mm Hg 35%
06:00 +14°C° 0 mm 2 m/s 744 mm Hg 36%
07:00 +16°C° 0 mm 2 m/s 745 mm Hg 34%
08:00 +19°C° 0 mm 3 m/s 745 mm Hg 31%
09:00 +21°C° 0 mm 3 m/s 745 mm Hg 29%
10:00 +24°C° 0 mm 3 m/s 745 mm Hg 28%
11:00 +25°C° 0 mm 4 m/s 745 mm Hg 27%
12:00 +27°C° 0 mm 4 m/s 745 mm Hg 26%
13:00 +28°C° 0 mm 4 m/s 744 mm Hg 25%
14:00 +29°C° 0 mm 4 m/s 744 mm Hg 24%
15:00 +29°C° 0 mm 4 m/s 744 mm Hg 23%
16:00 +28°C° 0 mm 3 m/s 744 mm Hg 25%
17:00 +26°C° 0 mm 3 m/s 744 mm Hg 27%
18:00 +25°C° 0 mm 3 m/s 743 mm Hg 29%
19:00 +24°C° 0 mm 3 m/s 744 mm Hg 31%
20:00 +21°C° 0 mm 4 m/s 744 mm Hg 33%
21:00 +20°C° 0 mm 4 m/s 744 mm Hg 35%
22:00 +19°C° 0 mm 4 m/s 744 mm Hg 37%
23:00 +18°C° 0 mm 3 m/s 744 mm Hg 38%

Dopodomani, 25 Settembre, Venerdi

Tempo Temperatura Precipitazioni Vento Pressione Umidità
00:00 +18°C° 0 mm 3 m/s 744 mm Hg 39%
01:00 +17°C° 0 mm 3 m/s 744 mm Hg 40%
02:00 +17°C° 0 mm 3 m/s 744 mm Hg 40%
03:00 +16°C° 0 mm 2 m/s 744 mm Hg 41%
04:00 +16°C° 0 mm 2 m/s 744 mm Hg 42%
05:00 +16°C° 0 mm 3 m/s 744 mm Hg 43%
06:00 +14°C° 0 mm 3 m/s 744 mm Hg 45%
07:00 +17°C° 0 mm 3 m/s 744 mm Hg 41%
08:00 +19°C° 0 mm 4 m/s 744 mm Hg 38%
09:00 +21°C° 0 mm 4 m/s 744 mm Hg 34%
10:00 +23°C° 0 mm 5 m/s 744 mm Hg 32%
11:00 +25°C° 0 mm 5 m/s 743 mm Hg 30%
12:00 +27°C° 0 mm 6 m/s 743 mm Hg 28%
13:00 +27°C° 0 mm 5 m/s 743 mm Hg 28%
14:00 +28°C° 0 mm 5 m/s 743 mm Hg 29%
15:00 +28°C° 0 mm 5 m/s 742 mm Hg 29%
16:00 +27°C° 0 mm 5 m/s 742 mm Hg 31%
17:00 +26°C° 0 mm 4 m/s 742 mm Hg 32%
18:00 +25°C° 0 mm 3 m/s 741 mm Hg 33%
19:00 +23°C° 0 mm 4 m/s 742 mm Hg 34%
20:00 +21°C° 0 mm 4 m/s 742 mm Hg 35%
21:00 +20°C° 0 mm 5 m/s 742 mm Hg 36%
22:00 +19°C° 0 mm 5 m/s 741 mm Hg 38%
23:00 +19°C° 0 mm 5 m/s 741 mm Hg 40%

26 Settembre, Sabato

Tempo Temperatura Precipitazioni Vento Pressione Umidità
00:00 +18°C° 0 mm 4 m/s 741 mm Hg 42%
01:00 +18°C° 0 mm 4 m/s 741 mm Hg 43%
02:00 +17°C° 0 mm 4 m/s 741 mm Hg 45%
03:00 +17°C° 0 mm 4 m/s 741 mm Hg 46%
04:00 +17°C° 0 mm 4 m/s 741 mm Hg 46%
05:00 +17°C° 0 mm 4 m/s 741 mm Hg 47%
06:00 +15°C° 0 mm 5 m/s 741 mm Hg 47%
07:00 +17°C° 0 mm 5 m/s 741 mm Hg 44%
08:00 +19°C° 0 mm 5 m/s 741 mm Hg 41%
09:00 +21°C° 0 mm 6 m/s 741 mm Hg 38%
10:00 +23°C° 0 mm 6 m/s 741 mm Hg 30%
11:00 +26°C° 0 mm 7 m/s 741 mm Hg 23%
12:00 +28°C° 0 mm 7 m/s 741 mm Hg 16%
13:00 +29°C° 0 mm 7 m/s 741 mm Hg 16%
14:00 +29°C° 0 mm 7 m/s 740 mm Hg 15%
15:00 +30°C° 0 mm 7 m/s 740 mm Hg 15%
16:00 +29°C° 0 mm 6 m/s 740 mm Hg 17%
17:00 +28°C° 0 mm 6 m/s 740 mm Hg 20%
18:00 +26°C° 0 mm 5 m/s 740 mm Hg 22%
19:00 +24°C° 0 mm 6 m/s 741 mm Hg 28%
20:00 +22°C° 0 mm 7 m/s 741 mm Hg 34%
21:00 +21°C° 0 mm 8 m/s 741 mm Hg 40%
22:00 +20°C° 0 mm 7 m/s 741 mm Hg 44%
23:00 +18°C° 0 mm 7 m/s 741 mm Hg 48%

27 Settembre, Domenica

Tempo Temperatura Precipitazioni Vento Pressione Umidità
00:00 +17°C° 0 mm 7 m/s 742 mm Hg 51%
01:00 +16°C° 0 mm 7 m/s 742 mm Hg 50%
02:00 +16°C° 0 mm 7 m/s 742 mm Hg 48%
03:00 +16°C° 0 mm 7 m/s 742 mm Hg 47%
04:00 +15°C° 0 mm 7 m/s 742 mm Hg 48%
05:00 +15°C° 0 mm 7 m/s 742 mm Hg 49%
06:00 +13°C° 0 mm 8 m/s 742 mm Hg 51%
07:00 +15°C° 0 mm 8 m/s 742 mm Hg 47%
08:00 +17°C° 0 mm 9 m/s 742 mm Hg 42%
09:00 +18°C° 0 mm 9 m/s 742 mm Hg 38%
10:00 +21°C° 0 mm 9 m/s 742 mm Hg 34%
11:00 +23°C° 0 mm 10 m/s 742 mm Hg 29%
12:00 +24°C° 0 mm 10 m/s 742 mm Hg 24%
13:00 +26°C° 0 mm 10 m/s 742 mm Hg 23%
14:00 +27°C° 0 mm 10 m/s 741 mm Hg 22%
15:00 +28°C° 0 mm 10 m/s 741 mm Hg 21%
16:00 +27°C° 0 mm 9 m/s 741 mm Hg 23%
17:00 +26°C° 0 mm 8 m/s 741 mm Hg 25%
18:00 +24°C° 0 mm 7 m/s 741 mm Hg 27%
19:00 +23°C° 0 mm 8 m/s 741 mm Hg 29%
20:00 +22°C° 0 mm 8 m/s 742 mm Hg 30%
21:00 +21°C° 0 mm 9 m/s 742 mm Hg 32%
22:00 +20°C° 0.1 mm 8 m/s 742 mm Hg 36%
23:00 +18°C° 0.1 mm 8 m/s 742 mm Hg 40%

28 Settembre, Lunedi

Tempo Temperatura Precipitazioni Vento Pressione Umidità
00:00 +17°C° 0.1 mm 8 m/s 742 mm Hg 44%
01:00 +16°C° 0.5 mm 7 m/s 742 mm Hg 49%
02:00 +16°C° 0.5 mm 7 m/s 742 mm Hg 54%
03:00 +15°C° 0.5 mm 6 m/s 742 mm Hg 59%
04:00 +15°C° 0.5 mm 6 m/s 742 mm Hg 61%
05:00 +14°C° 0.5 mm 7 m/s 742 mm Hg 64%
06:00 +14°C° 0.5 mm 7 m/s 742 mm Hg 66%
07:00 +14°C° 0.3 mm 7 m/s 742 mm Hg 65%
08:00 +14°C° 0.3 mm 7 m/s 743 mm Hg 63%
09:00 +15°C° 0.3 mm 7 m/s 743 mm Hg 62%
10:00 +14°C° 1.3 mm 7 m/s 743 mm Hg 66%
11:00 +14°C° 1.3 mm 6 m/s 743 mm Hg 71%
12:00 +14°C° 1.3 mm 6 m/s 743 mm Hg 75%
13:00 +15°C° 0.3 mm 6 m/s 742 mm Hg 71%
14:00 +16°C° 0.3 mm 6 m/s 742 mm Hg 67%
15:00 +17°C° 0.3 mm 5 m/s 742 mm Hg 63%
16:00 +17°C° 0.7 mm 5 m/s 742 mm Hg 69%
17:00 +17°C° 0.7 mm 4 m/s 741 mm Hg 76%
18:00 +17°C° 0.7 mm 4 m/s 741 mm Hg 82%
19:00 +16°C° 0.4 mm 3 m/s 741 mm Hg 82%
20:00 +16°C° 0.4 mm 3 m/s 741 mm Hg 82%
21:00 +16°C° 0.4 mm 3 m/s 741 mm Hg 82%
22:00 +16°C° 0.1 mm 2 m/s 741 mm Hg 83%
23:00 +16°C° 0.1 mm 2 m/s 742 mm Hg 84%
Mostrare altro